Weather History for Hot Springs, VA

Change the Weather History Date:

Saturday, March 10, 2012

  Actual Average Record
Temperature  
Mean Temperature 34 °F -  
Max Temperature 46 °F 40 °F 64 °F (2006)
Min Temperature 21 °F 24 °F 10 °F (1998)
Degree Days  
Heating Degree Days 32    
Moisture  
Dew Point 12 °F    
Average Humidity 47    
Maximum Humidity 74    
Minimum Humidity 24    
Precipitation  
Precipitation 0.00 in - - ()
Sea Level Pressure  
Sea Level Pressure 30.38 in    
Wind  
Wind Speed 12 mph (WNW)    
Max Wind Speed 18 mph    
Max Gust Speed 28 mph    
Visibility 10 miles    
Events      
Averages and records for this station are not official NWS values.
T = Trace of Precipitation, MM = Missing Value Source: NWS Daily Summary

Daily Weather History Graph

Daily Weather History Graph

Search for Another Location

Airport:

Trip Planner

Search our weather history database for the weather conditions in past years. The results will help you decide how hot, cold, wet, or windy it might be!

Date:

Astronomy

Mar. 10, 2012 Rise Set
Actual Time 6:37 AM EST 6:22 PM EST
Civil Twilight 6:11 AM EST 6:48 PM EST
Nautical Twilight 5:40 AM EST 7:18 PM EST
Astronomical Twilight 5:09 AM EST 7:49 PM EST
Moon 9:28 PM EST (3/10) 7:35 AM EST (3/10)
Length of Visible Light 12h 37m
Length of Day
11h 44m
Waning Gibbous, 93% of the Moon is Illuminated
Mar 10
Waning Gibbous
Mar 14
Last Quarter
Mar 22
New
Mar 30
First Quarter
Apr 6
Full

Hourly Weather History & Observations

Time (EST) Temp. Windchill Dew Point Humidity Pressure Visibility Wind Dir Wind Speed Gust Speed Precip Events Conditions
12:15 AM 26.6 °F 14.3 °F 15.8 °F 64% 30.29 in 10.0 mi NW 16.1 mph 26.5 mph N/A   Clear
12:35 AM 26.6 °F 14.7 °F 15.8 °F 64% 30.28 in 10.0 mi NW 15.0 mph 23.0 mph N/A   Clear
12:55 AM 26.6 °F 13.8 °F 15.8 °F 64% 30.27 in 10.0 mi WNW 17.3 mph 27.6 mph N/A   Clear
1:15 AM 24.8 °F 12.4 °F 15.8 °F 69% 30.28 in 10.0 mi NW 15.0 mph 26.5 mph N/A   Clear
1:35 AM 24.8 °F 14.6 °F 15.8 °F 69% 30.28 in 10.0 mi NW 10.4 mph 20.7 mph N/A   Clear
1:55 AM 24.8 °F 13.4 °F 15.8 °F 69% 30.28 in 10.0 mi WNW 12.7 mph 24.2 mph N/A   Clear
2:15 AM 24.8 °F 12.9 °F 15.8 °F 69% 30.28 in 10.0 mi WNW 13.8 mph 19.6 mph N/A   Clear
2:35 AM 24.8 °F 11.1 °F 15.8 °F 69% 30.29 in 10.0 mi WNW 18.4 mph 27.6 mph N/A   Clear
2:55 AM 24.8 °F 12.4 °F 15.8 °F 69% 30.28 in 10.0 mi WNW 15.0 mph 19.6 mph N/A   Clear
3:15 AM 24.8 °F 12.4 °F 15.8 °F 69% 30.29 in 10.0 mi WNW 15.0 mph 23.0 mph N/A   Clear
3:35 AM 24.8 °F 12.9 °F 15.8 °F 69% 30.28 in 10.0 mi WNW 13.8 mph 23.0 mph N/A   Clear
3:55 AM 23.0 °F 9.2 °F 15.8 °F 74% 30.28 in 10.0 mi NW 17.3 mph 23.0 mph N/A   Clear
4:15 AM 23.0 °F 10.6 °F 14.0 °F 68% 30.28 in 10.0 mi NW 13.8 mph 21.9 mph N/A   Clear
4:37 AM 23.0 °F 10.6 °F 14.0 °F 68% 30.30 in 10.0 mi WNW 13.8 mph 21.9 mph N/A   Clear
4:55 AM 21.2 °F 8.9 °F 14.0 °F 74% 30.31 in 10.0 mi NW 12.7 mph 20.7 mph N/A   Clear
5:15 AM 21.2 °F 10.9 °F 14.0 °F 74% 30.32 in 10.0 mi NW 9.2 mph 19.6 mph N/A   Clear
5:35 AM 21.2 °F 12.6 °F 14.0 °F 74% - 10.0 mi WNW 6.9 mph - N/A   Clear
5:55 AM 21.2 °F 11.7 °F 12.2 °F 68% 30.34 in 10.0 mi NW 8.1 mph - N/A   Clear
6:16 AM 21.2 °F 11.7 °F 12.2 °F 68% 30.35 in 10.0 mi WNW 8.1 mph - N/A   Clear
6:35 AM 21.2 °F 10.9 °F 12.2 °F 68% 30.36 in 10.0 mi NW 9.2 mph - N/A   Clear
6:55 AM 21.2 °F 7.8 °F 12.2 °F 68% 30.37 in 10.0 mi WNW 15.0 mph - N/A   Clear
7:15 AM 21.2 °F 7.8 °F 10.4 °F 63% 30.37 in 10.0 mi WNW 15.0 mph - N/A   Clear
7:35 AM 23.0 °F 11.7 °F 10.4 °F 59% 30.37 in 10.0 mi WNW 11.5 mph - N/A   Clear
7:55 AM 24.8 °F 15.3 °F 10.4 °F 54% 30.39 in 10.0 mi WNW 9.2 mph - N/A   Clear
8:15 AM 24.8 °F 15.3 °F 10.4 °F 54% 30.39 in 10.0 mi WNW 9.2 mph - N/A   Clear
8:35 AM 24.8 °F 15.3 °F 10.4 °F 54% 30.40 in 10.0 mi WNW 9.2 mph - N/A   Clear
8:55 AM 26.6 °F 19.1 °F 10.4 °F 51% 30.41 in 10.0 mi NW 6.9 mph - N/A   Clear
9:15 AM 26.6 °F 18.2 °F 8.6 °F 47% 30.42 in 10.0 mi NW 8.1 mph - N/A   Clear
9:37 AM 28.4 °F 19.1 °F 8.6 °F 43% 30.42 in 10.0 mi NW 10.4 mph - N/A   Clear
9:55 AM 30.2 °F 22.6 °F 10.4 °F 44% 30.42 in 10.0 mi WNW 8.1 mph - N/A   Clear
10:15 AM 30.2 °F 24.3 °F 8.6 °F 40% 30.42 in 10.0 mi NNW 5.8 mph - N/A   Clear
10:35 AM 33.8 °F 26.4 °F 8.6 °F 35% 30.43 in 10.0 mi NW 9.2 mph - N/A   Clear
10:55 AM 33.8 °F 27.0 °F 8.6 °F 35% 30.43 in 10.0 mi NW 8.1 mph - N/A   Clear
11:15 AM 35.6 °F 27.5 °F 6.8 °F 30% 30.43 in 10.0 mi NNW 11.5 mph - N/A   Clear
11:35 AM 35.6 °F 29.2 °F 6.8 °F 30% 30.43 in 10.0 mi NW 8.1 mph - N/A   Clear
11:55 AM 37.4 °F 33.8 °F 6.8 °F 28% 30.43 in 10.0 mi North 4.6 mph - N/A   Clear
12:15 PM 39.2 °F 34.2 °F 5.0 °F 24% 30.43 in 10.0 mi NNE 6.9 mph - N/A   Clear
12:35 PM 41.0 °F 35.8 °F 6.8 °F 24% 30.43 in 10.0 mi NNW 8.1 mph - N/A   Clear
12:55 PM 41.0 °F 36.4 °F 6.8 °F 24% 30.42 in 10.0 mi ENE 6.9 mph - N/A   Clear
1:15 PM 42.8 °F 39.3 °F 8.6 °F 25% 30.42 in 10.0 mi WNW 5.8 mph - N/A   Clear
1:35 PM 42.8 °F 38.6 °F 8.6 °F 25% 30.42 in 10.0 mi WNW 6.9 mph - N/A   Clear
1:55 PM 42.8 °F 40.1 °F 10.4 °F 27% 30.41 in 10.0 mi SSE 4.6 mph - N/A   Clear
2:15 PM 42.8 °F 41.1 °F 10.4 °F 27% 30.42 in 10.0 mi ESE 3.5 mph - N/A   Clear
2:35 PM 44.6 °F 41.4 °F 12.2 °F 27% 30.42 in 10.0 mi SSE 5.8 mph - N/A   Clear
2:55 PM 44.6 °F 43.1 °F 12.2 °F 27% 30.42 in 10.0 mi SE 3.5 mph - N/A   Clear
3:17 PM 46.4 °F 41.9 °F 12.2 °F 25% 30.42 in 10.0 mi SE 9.2 mph - N/A   Clear
3:35 PM 44.6 °F 40.2 °F 10.4 °F 25% 30.42 in 10.0 mi SE 8.1 mph - N/A   Clear
3:55 PM 46.4 °F 42.9 °F 12.2 °F 25% 30.42 in 10.0 mi SSE 6.9 mph - N/A   Clear
4:15 PM 44.6 °F 40.2 °F 12.2 °F 27% 30.42 in 10.0 mi South 8.1 mph - N/A   Clear
4:35 PM 44.6 °F 40.2 °F 12.2 °F 27% 30.42 in 10.0 mi South 8.1 mph - N/A   Clear
4:55 PM 44.6 °F 40.2 °F 12.2 °F 27% 30.42 in 10.0 mi SSE 8.1 mph - N/A   Clear
5:16 PM 42.8 °F 38.6 °F 12.2 °F 29% 30.43 in 10.0 mi SSE 6.9 mph - N/A   Clear
5:35 PM 42.8 °F 38.0 °F 12.2 °F 29% 30.43 in 10.0 mi South 8.1 mph - N/A   Clear
5:55 PM 41.0 °F 36.4 °F 12.2 °F 31% 30.43 in 10.0 mi South 6.9 mph - N/A   Clear
6:15 PM 39.2 °F 34.2 °F 12.2 °F 33% 30.44 in 10.0 mi South 6.9 mph - N/A   Clear
6:35 PM 39.2 °F 34.2 °F 12.2 °F 33% 30.44 in 10.0 mi South 6.9 mph - N/A   Clear
6:55 PM 37.4 °F 32.1 °F 14.0 °F 38% 30.44 in 10.0 mi South 6.9 mph - N/A   Clear
7:15 PM 37.4 °F 31.4 °F 12.2 °F 36% 30.44 in 10.0 mi South 8.1 mph - N/A   Clear
7:35 PM 37.4 °F 32.8 °F 12.2 °F 36% 30.44 in 10.0 mi South 5.8 mph - N/A   Clear
7:55 PM 37.4 °F 32.1 °F 14.0 °F 38% 30.44 in 10.0 mi South 6.9 mph - N/A   Clear
8:15 PM 37.4 °F 30.8 °F 12.2 °F 36% 30.44 in 10.0 mi SSE 9.2 mph - N/A   Clear
8:35 PM 37.4 °F 32.1 °F 14.0 °F 38% 30.44 in 10.0 mi South 6.9 mph - N/A   Clear
8:56 PM 37.4 °F 32.1 °F 14.0 °F 38% 30.44 in 10.0 mi South 6.9 mph - N/A   Clear
9:15 PM 35.6 °F 28.6 °F 14.0 °F 41% 30.45 in 10.0 mi South 9.2 mph - N/A   Clear
9:35 PM 37.4 °F 31.4 °F 14.0 °F 38% 30.46 in 10.0 mi SSW 8.1 mph - N/A   Clear
9:55 PM 35.6 °F 29.2 °F 14.0 °F 41% 30.46 in 10.0 mi South 8.1 mph - N/A   Clear
10:15 PM 35.6 °F 28.0 °F 14.0 °F 41% 30.46 in 10.0 mi South 10.4 mph - N/A   Clear
10:35 PM 35.6 °F 28.6 °F 12.2 °F 38% 30.46 in 10.0 mi South 9.2 mph - N/A   Clear
10:55 PM 35.6 °F 28.0 °F 14.0 °F 41% 30.46 in 10.0 mi South 10.4 mph - N/A   Clear
11:15 PM 35.6 °F 29.2 °F 14.0 °F 41% 30.46 in 10.0 mi South 8.1 mph - N/A   Clear
11:35 PM 35.6 °F 29.2 °F 14.0 °F 41% 30.46 in 10.0 mi South 8.1 mph - N/A   Clear
11:55 PM 35.6 °F 29.9 °F 15.8 °F 44% 30.45 in 10.0 mi South 6.9 mph - N/A   Clear